Stündliche Wetter Celin

Heute, 24 Januar, Sonntag

Zeit Temperatur Niederschläge Wind Luftdruck Luftfeuchtigkeit
00:00 +3°C° 0 mm 4 m/S 724 mmHg 86%
01:00 +3°C° 0 mm 4 m/S 724 mmHg 87%
02:00 +3°C° 0 mm 3 m/S 724 mmHg 88%
03:00 +2°C° 0 mm 3 m/S 724 mmHg 90%
04:00 +3°C° 0 mm 2 m/S 724 mmHg 92%
05:00 +3°C° 0 mm 1 m/S 723 mmHg 94%
06:00 +2°C° 0.1 mm 2 m/S 723 mmHg 93%
07:00 +2°C° 0.1 mm 2 m/S 723 mmHg 93%
08:00 +1°C° 0.1 mm 2 m/S 723 mmHg 93%
09:00 +1°C° 0.7 mm 2 m/S 723 mmHg 94%
10:00 +1°C° 0.7 mm 2 m/S 723 mmHg 95%
11:00 -1°C° 0.7 mm 3 m/S 723 mmHg 97%
12:00 -1°C° 0.4 mm 3 m/S 723 mmHg 97%
13:00 -1°C° 0.4 mm 3 m/S 723 mmHg 97%
14:00 -1°C° 0.4 mm 3 m/S 722 mmHg 97%
15:00 -1°C° 0.6 mm 3 m/S 723 mmHg 97%
16:00 -1°C° 0.6 mm 3 m/S 723 mmHg 97%
17:00 -1°C° 0.6 mm 3 m/S 723 mmHg 97%
18:00 -1°C° 0.1 mm 3 m/S 723 mmHg 97%
19:00 -1°C° 0.1 mm 3 m/S 724 mmHg 97%
20:00 -1°C° 0.1 mm 3 m/S 724 mmHg 96%
21:00 -1°C° 0 mm 3 m/S 725 mmHg 95%
22:00 -1°C° 0 mm 3 m/S 725 mmHg 94%
23:00 -1°C° 0 mm 3 m/S 725 mmHg 93%

Morgen, 25 Januar, Montag

Zeit Temperatur Niederschläge Wind Luftdruck Luftfeuchtigkeit
00:00 -2°C° 0 mm 2 m/S 725 mmHg 94%
01:00 -2°C° 0 mm 2 m/S 725 mmHg 94%
02:00 0°C° 0 mm 1 m/S 726 mmHg 95%
03:00 -1°C° 0 mm 1 m/S 726 mmHg 95%
04:00 -1°C° 0 mm 1 m/S 726 mmHg 95%
05:00 -3°C° 0 mm 2 m/S 726 mmHg 95%
06:00 -1°C° 0 mm 1 m/S 727 mmHg 95%
07:00 -1°C° 0 mm 1 m/S 727 mmHg 95%
08:00 -1°C° 0 mm 1 m/S 727 mmHg 95%
09:00 -1°C° 0 mm 1 m/S 727 mmHg 92%
10:00 -2°C° 0 mm 2 m/S 727 mmHg 90%
11:00 -2°C° 0 mm 2 m/S 728 mmHg 87%
12:00 -2°C° 0 mm 3 m/S 727 mmHg 87%
13:00 -2°C° 0 mm 4 m/S 727 mmHg 87%
14:00 -2°C° 0 mm 4 m/S 727 mmHg 86%
15:00 -2°C° 0.1 mm 5 m/S 727 mmHg 88%
16:00 -4°C° 0.1 mm 5 m/S 727 mmHg 90%
17:00 -4°C° 0.1 mm 6 m/S 727 mmHg 91%
18:00 -4°C° 0.3 mm 6 m/S 727 mmHg 92%
19:00 -4°C° 0.3 mm 7 m/S 727 mmHg 92%
20:00 -5°C° 0.3 mm 8 m/S 727 mmHg 93%
21:00 -5°C° 0.7 mm 8 m/S 727 mmHg 93%
22:00 -5°C° 0.7 mm 9 m/S 726 mmHg 92%
23:00 -6°C° 0.7 mm 9 m/S 726 mmHg 92%

übermorgen, 26 Januar, Dienstag

Zeit Temperatur Niederschläge Wind Luftdruck Luftfeuchtigkeit
00:00 -6°C° 0.4 mm 9 m/S 726 mmHg 91%
01:00 -7°C° 0.4 mm 10 m/S 726 mmHg 89%
02:00 -7°C° 0.4 mm 10 m/S 726 mmHg 88%
03:00 -7°C° 0.1 mm 10 m/S 726 mmHg 87%
04:00 -7°C° 0.1 mm 10 m/S 726 mmHg 87%
05:00 -7°C° 0.1 mm 10 m/S 726 mmHg 87%
06:00 -7°C° 0 mm 10 m/S 726 mmHg 87%
07:00 -7°C° 0 mm 10 m/S 726 mmHg 88%
08:00 -7°C° 0 mm 10 m/S 726 mmHg 88%
09:00 -7°C° 0.1 mm 10 m/S 727 mmHg 89%
10:00 -7°C° 0.1 mm 10 m/S 727 mmHg 89%
11:00 -7°C° 0.1 mm 10 m/S 727 mmHg 90%
12:00 -5°C° 0.1 mm 10 m/S 728 mmHg 89%
13:00 -5°C° 0.1 mm 10 m/S 728 mmHg 89%
14:00 -5°C° 0.1 mm 10 m/S 728 mmHg 88%
15:00 -5°C° 0.1 mm 10 m/S 729 mmHg 89%
16:00 -5°C° 0.1 mm 10 m/S 729 mmHg 91%
17:00 -5°C° 0.1 mm 9 m/S 729 mmHg 92%
18:00 -6°C° 0.1 mm 9 m/S 730 mmHg 90%
19:00 -6°C° 0.1 mm 9 m/S 730 mmHg 88%
20:00 -6°C° 0.1 mm 9 m/S 730 mmHg 87%
21:00 -6°C° 0.1 mm 8 m/S 731 mmHg 89%
22:00 -6°C° 0.1 mm 8 m/S 731 mmHg 91%
23:00 -6°C° 0.1 mm 8 m/S 731 mmHg 93%

27 Januar, Mittwoch

Zeit Temperatur Niederschläge Wind Luftdruck Luftfeuchtigkeit
00:00 -6°C° 0.1 mm 8 m/S 731 mmHg 91%
01:00 -6°C° 0.1 mm 8 m/S 731 mmHg 90%
02:00 -6°C° 0.1 mm 8 m/S 732 mmHg 88%
03:00 -6°C° 0 mm 8 m/S 732 mmHg 88%
04:00 -6°C° 0 mm 7 m/S 732 mmHg 87%
05:00 -7°C° 0 mm 7 m/S 732 mmHg 87%
06:00 -6°C° 0 mm 6 m/S 732 mmHg 87%
07:00 -6°C° 0 mm 6 m/S 732 mmHg 88%
08:00 -8°C° 0 mm 6 m/S 732 mmHg 88%
09:00 -6°C° 0 mm 6 m/S 732 mmHg 88%
10:00 -5°C° 0 mm 6 m/S 733 mmHg 87%
11:00 -5°C° 0 mm 6 m/S 733 mmHg 87%
12:00 -4°C° 0 mm 6 m/S 733 mmHg 86%
13:00 -4°C° 0 mm 5 m/S 733 mmHg 84%
14:00 -4°C° 0 mm 5 m/S 733 mmHg 83%
15:00 -3°C° 0 mm 4 m/S 733 mmHg 84%
16:00 -3°C° 0 mm 4 m/S 733 mmHg 85%
17:00 -4°C° 0 mm 3 m/S 733 mmHg 86%
18:00 -4°C° 0 mm 3 m/S 733 mmHg 86%
19:00 -5°C° 0 mm 3 m/S 733 mmHg 87%
20:00 -6°C° 0 mm 3 m/S 734 mmHg 88%
21:00 -6°C° 0 mm 3 m/S 734 mmHg 88%
22:00 -6°C° 0 mm 3 m/S 734 mmHg 89%
23:00 -6°C° 0 mm 3 m/S 734 mmHg 90%

28 Januar, Donnerstag

Zeit Temperatur Niederschläge Wind Luftdruck Luftfeuchtigkeit
00:00 -6°C° 0 mm 3 m/S 734 mmHg 92%
01:00 -5°C° 0 mm 2 m/S 734 mmHg 93%
02:00 -5°C° 0 mm 2 m/S 734 mmHg 95%
03:00 -5°C° 0 mm 2 m/S 734 mmHg 96%
04:00 -5°C° 0 mm 2 m/S 734 mmHg 96%
05:00 -4°C° 0 mm 2 m/S 735 mmHg 96%
06:00 -4°C° 0 mm 2 m/S 735 mmHg 96%
07:00 -4°C° 0 mm 2 m/S 735 mmHg 95%
08:00 -4°C° 0 mm 2 m/S 735 mmHg 94%
09:00 -3°C° 0 mm 2 m/S 735 mmHg 94%
10:00 -3°C° 0 mm 2 m/S 735 mmHg 93%
11:00 -3°C° 0 mm 2 m/S 735 mmHg 93%
12:00 -2°C° 0.1 mm 2 m/S 735 mmHg 92%
13:00 -2°C° 0.1 mm 2 m/S 734 mmHg 91%
14:00 -2°C° 0.1 mm 3 m/S 734 mmHg 91%
15:00 -2°C° 0 mm 2 m/S 734 mmHg 91%
16:00 -3°C° 0 mm 2 m/S 734 mmHg 91%
17:00 -1°C° 0 mm 1 m/S 733 mmHg 90%
18:00 -2°C° 0 mm 1 m/S 733 mmHg 91%
19:00 -2°C° 0 mm 1 m/S 733 mmHg 92%
20:00 -3°C° 0 mm 1 m/S 733 mmHg 92%

29 Januar, Freitag

Zeit Temperatur Niederschläge Wind Luftdruck Luftfeuchtigkeit
Mehr zeigen

Wir brauchen deine Erlaubnis

Meteoprog und unser Service Anbieter werden persönliche Daten aufbewahren, so wie Cookies, Geräte Bezeichnung oder ähnliche Technologien von deinem Gerät und Prozess, so wie Persönliche Daten Inhalte und Werbungen, genauso wie social Media und den Verkehr zu analysieren.

  • Aufbewahrung und/oder Zugang zu deiner Geräte Informationen.

    Cookies, Geräte Bezeichnung oder andere Informationen, können aufbewahrt oder Zugang zu deinem Gerät erhalten, für den Grund, der oben angegeben wird.

  • Personalisierte Werbung und Inhalte, Messungen, Einblick in das Publikum und Produkt Entwicklung.

    Werbungen und Inhalte können personalisiert werden, basierend auf ein Profil. Mehr Daten können besser personalisierte Werbungen und Inhalte hinzufügen. Werbung und Inhalte können gezeigt und gemessen werden. Einblicke über das Publikum, welche die Werbung gesehen haben und den Inhalt, können abgeleitet werden. So wie Daten können genutzt werden, um es zu verbessern oder die Benutzer Erfahrung zu verbessern das System und die Software.

Wenn du “Ich stimme zu” klickst, erlaubst du uns, die Cookies zu benutzen die Geräte Bezeichnung, den Web oder ähnliche Technologien zu benutzen. Deine Settings, können in deinem Gerät bei deinem Browser geändert werden.

Für den bestimmten Zweck, berechtigten Interessen beruhen darauf, mehr als auf den Inhalt. Du kannst mehr darüber in unseren Privaten und Cookie Politik lesen.